Location: Pl�tzky
(52.0521°N, 11.8020°E)
Time: 12:56:28
(UTC+00:00)

Cosmos 1933 Rocket - Pass Details

Date: 22 November 2019
Orbit: 606 x 631 km, 82.5° (Epoch: 12 December)

Event Time Altitude Azimuth Distance (km) Brightness Sun altitude
Rises 16:42:31 0° 352° (N) 2,880 6.9 -13.3°
Reaches altitude 10° 16:44:47 10° 356° (N) 1,972 6.0 -13.7°
Maximum altitude 16:49:05 57° 75° (ENE) 725 3.5 -14.3°
Drops below altitude 10° 16:53:22 10° 155° (SSE) 1,965 6.0 -14.9°
Sets 16:55:37 0° 160° (SSE) 2,868 6.9 -15.3°
